OBJECT D

基本信息
目录编号:
59054
目录名称:
OBJECT D
国际标识:
2024-039D
轨道中心:
EARTH
物体状态:
已陨落(2025-05-13)
发射日期:
2024-02-29 UTC
国别:
(TBD)
轨道信息
数据来源: 国际轨道数据
星历时间: 2025-05-09T23:44:03+0800
半长轴: 6526.746km
偏心率: 0.0009673
轨道倾角: 97.396°
近地点辐角: 220.627°
升交点赤经: 106.435°
平近点角: 139.431°
近地点: 142.297km
远地点: 154.925km
周期: 87.459分钟
每日圈数: 16.464849
详细信息
发射场:
VOSTO
轨道高度:
LEO
数据来源:
AOE Integration Group
参考系:
TEME
时间系统:
UTC
历元类型:
SGP4
2D轨道图
3D轨道图
轨道高度分析图
轨道倾角分析图
轨道综合分析图
查看轨道综合分析图